User: anonymous   Login
Location: Theodore Roosevelt National Park
(46.9990°N, 103.4631°W)
Time: 21:44:01
(UTC-07:00)
Language:

Cosmos 2219 Rocket - Orbit

View from above orbital plane
View from above orbital plane
View from above satellite
View from above satellite

Ground track
Ground track

The orbit data is extracted from the following two-line orbital elements,

1 22220U 92076B   16039.96839102 -.00000045 +00000-0 +14344-5 0  9990
2 22220 071.0009 019.5275 0014939 300.4895 119.8866 14.16391504200466
Epoch (UTC): 08 February 2016 23:14:28
Eccentricity: 0.0014939
inclination: 71.0009°
perigee height: 827 km
apogee height: 848 km
right ascension of ascending node: 19.5275°
argument of perigee: 300.4895°
revolutions per day: 14.16391504
mean anomaly at epoch: 119.8866°
orbit number at epoch: 20046

The dashed part of the orbit path shows where the satellite is in the earth's shadow,  

DLR